This is the latest recevied weather packets stored in our database for station/object F4FEB-13. If no packets are shown the sender has not sent any weather packets the latest 10 day(s).
| Time | Temp. | Humidity | Pressure | Rain* | Wind** | Luminosity | Snow |
|---|---|---|---|---|---|---|---|
| 1777723768 | 23.33° C | 38% | 1019.6 hPa | 0 mm | - | - | - |
| 1777723468 | 22.78° C | 40% | 1019.7 hPa | 0 mm | - | - | - |
| 1777723171 | 23.33° C | 40% | 1019.7 hPa | 0 mm | - | - | - |
| 1777723168 | 23.33° C | 40% | 1019.7 hPa | 0 mm | - | - | - |
| 1777722868 | 23.33° C | 37% | 1019.8 hPa | 0 mm | - | - | - |
| 1777722568 | 23.33° C | 40% | 1019.9 hPa | 0 mm | - | - | - |
| 1777722268 | 23.33° C | 37% | 1019.9 hPa | 0 mm | - | - | - |
| 1777721968 | 23.89° C | 39% | 1020 hPa | 0 mm | - | - | - |
| 1777721668 | 23.89° C | 37% | 1020.1 hPa | 0 mm | - | - | - |
| 1777721368 | 23.89° C | 37% | 1020.1 hPa | 0 mm | - | - | - |
| 1777721068 | 23.33° C | 36% | 1020.2 hPa | 0 mm | - | - | - |
| 1777720768 | 23.33° C | 38% | 1020.3 hPa | 0 mm | - | - | - |
| 1777720468 | 23.33° C | 39% | 1020.3 hPa | 0 mm | - | - | - |
| 1777720168 | 23.33° C | 37% | 1020.4 hPa | 0 mm | - | - | - |
| 1777719868 | 22.78° C | 35% | 1020.4 hPa | 0 mm | - | - | - |
| 1777719568 | 22.78° C | 36% | 1020.5 hPa | 0 mm | - | - | - |
| 1777719268 | 22.78° C | 37% | 1020.7 hPa | 0 mm | - | - | - |
| 1777718968 | 22.22° C | 47% | 1020.7 hPa | 0 mm | - | - | - |
| 1777718668 | 22.22° C | 44% | 1020.8 hPa | 0 mm | - | - | - |
| 1777718368 | 21.67° C | 44% | 1020.9 hPa | 0 mm | - | - | - |
| 1777718068 | 21.11° C | 50% | 1021 hPa | 0 mm | - | - | - |
| 1777717768 | 21.11° C | 47% | 1021 hPa | 0 mm | - | - | - |
| 1777717468 | 20.56° C | 51% | 1021 hPa | 0 mm | - | - | - |
| 1777717168 | 20.56° C | 52% | 1021.1 hPa | 0 mm | - | - | - |
| 1777716868 | 20.56° C | 53% | 1021.2 hPa | 0 mm | - | - | - |
* Rain latest hour (hover to see other rain measurements)
** Current wind speed in m/s (hover to see current wind gust speed)